Time,TemperatureF,DewpointF,PressureIn,WindDirection,WindDirectionDegrees,WindSpeedMPH,WindSpeedGustMPH,Humidity,HourlyPrecipIn,Conditions,Clouds,dailyrainin,SoftwareType,DateUTC
2013-05-25 00:00:00,50.0,45.0,29.99,SSW,195,0.0,0.0,83,0.00,,,0.00,Wunderground v.1.15,2013-05-25 07:00:00,
2013-05-25 00:05:00,49.9,44.9,29.99,SSW,195,0.0,0.0,83,0.00,,,0.00,Wunderground v.1.15,2013-05-25 07:05:00,
2013-05-25 00:10:00,49.8,44.8,29.99,SSW,195,0.0,0.0,83,0.00,,,0.00,Wunderground v.1.15,2013-05-25 07:10:00,
2013-05-25 00:15:00,49.7,44.7,29.99,SSW,195,0.0,0.0,83,0.00,,,0.00,Wunderground v.1.15,2013-05-25 07:15:00,
2013-05-25 00:20:00,49.6,45.0,29.99,SSW,195,0.0,0.0,84,0.00,,,0.00,Wunderground v.1.15,2013-05-25 07:20:00,
2013-05-25 00:30:00,49.3,44.7,29.99,SSW,195,0.0,0.0,84,0.00,,,0.00,Wunderground v.1.15,2013-05-25 07:30:00,
2013-05-25 00:35:00,49.2,44.6,29.99,SSW,195,0.0,0.0,84,0.00,,,0.00,Wunderground v.1.15,2013-05-25 07:35:00,
2013-05-25 00:40:00,49.1,44.5,29.99,SSW,195,0.0,0.0,84,0.00,,,0.00,Wunderground v.1.15,2013-05-25 07:40:00,
2013-05-25 00:45:00,49.0,44.7,29.99,SSW,195,0.0,0.0,85,0.00,,,0.00,Wunderground v.1.15,2013-05-25 07:45:00,
2013-05-25 00:55:00,48.7,44.4,29.98,SSW,195,0.0,0.0,85,0.00,,,0.00,Wunderground v.1.15,2013-05-25 07:55:00,
2013-05-25 01:00:00,48.6,44.3,29.98,SSW,195,0.0,0.0,85,0.00,,,0.00,Wunderground v.1.15,2013-05-25 08:00:00,
2013-05-25 01:05:00,48.5,44.2,29.98,SSW,195,0.0,0.0,85,0.00,,,0.00,Wunderground v.1.15,2013-05-25 08:05:00,
2013-05-25 01:10:00,48.4,44.1,29.98,SSW,195,0.0,0.0,85,0.00,,,0.00,Wunderground v.1.15,2013-05-25 08:10:00,
2013-05-25 01:15:00,48.3,44.0,29.98,SSW,195,0.0,0.0,85,0.00,,,0.00,Wunderground v.1.15,2013-05-25 08:15:00,
2013-05-25 01:25:00,48.1,44.1,29.98,SSW,195,0.0,0.0,86,0.00,,,0.00,Wunderground v.1.15,2013-05-25 08:25:00,
2013-05-25 01:35:00,48.0,44.0,29.98,SSW,195,0.0,0.0,86,0.00,,,0.00,Wunderground v.1.15,2013-05-25 08:35:00,
2013-05-25 01:40:00,47.9,43.9,29.98,SSW,195,0.0,0.0,86,0.00,,,0.00,Wunderground v.1.15,2013-05-25 08:40:00,
2013-05-25 01:45:00,47.9,44.2,29.98,SSW,195,0.0,0.0,87,0.00,,,0.00,Wunderground v.1.15,2013-05-25 08:45:00,
2013-05-25 01:50:00,47.8,44.1,29.98,SSW,195,0.0,0.0,87,0.00,,,0.00,Wunderground v.1.15,2013-05-25 08:50:00,
2013-05-25 02:00:00,47.7,44.0,29.98,SSW,195,0.0,0.0,87,0.00,,,0.00,Wunderground v.1.15,2013-05-25 09:00:00,
2013-05-25 02:05:00,47.6,43.9,29.98,SSW,195,0.0,0.0,87,0.00,,,0.00,Wunderground v.1.15,2013-05-25 09:05:00,
2013-05-25 02:10:00,47.4,43.7,29.98,SSW,195,0.0,0.0,87,0.00,,,0.00,Wunderground v.1.15,2013-05-25 09:10:00,
2013-05-25 02:15:00,47.3,43.6,29.98,SSW,195,0.0,0.0,87,0.00,,,0.00,Wunderground v.1.15,2013-05-25 09:15:00,
2013-05-25 02:25:00,47.2,43.5,29.97,SSW,195,0.0,0.0,87,0.00,,,0.00,Wunderground v.1.15,2013-05-25 09:25:00,
2013-05-25 02:35:00,47.0,43.6,29.97,SSW,195,0.0,0.0,88,0.00,,,0.00,Wunderground v.1.15,2013-05-25 09:35:00,
2013-05-25 02:40:00,46.9,43.5,29.97,SSW,195,0.0,0.0,88,0.00,,,0.00,Wunderground v.1.15,2013-05-25 09:40:00,
2013-05-25 02:45:00,46.9,43.5,29.97,SSW,195,0.0,0.0,88,0.00,,,0.00,Wunderground v.1.15,2013-05-25 09:45:00,
2013-05-25 02:50:00,46.8,43.4,29.97,SSW,195,0.0,0.0,88,0.00,,,0.00,Wunderground v.1.15,2013-05-25 09:50:00,
2013-05-25 02:55:00,46.7,43.3,29.98,SSW,195,0.0,0.0,88,0.00,,,0.00,Wunderground v.1.15,2013-05-25 09:55:00,
2013-05-25 03:00:00,46.7,43.3,29.98,SSW,195,0.0,0.0,88,0.00,,,0.00,Wunderground v.1.15,2013-05-25 10:00:00,
2013-05-25 03:05:00,46.6,43.2,29.98,SSW,195,0.0,0.0,88,0.00,,,0.00,Wunderground v.1.15,2013-05-25 10:05:00,
2013-05-25 03:10:00,46.5,43.1,29.98,SSW,195,0.0,0.0,88,0.00,,,0.00,Wunderground v.1.15,2013-05-25 10:10:00,
2013-05-25 03:15:00,46.4,43.3,29.98,SSW,195,0.0,0.0,89,0.00,,,0.00,Wunderground v.1.15,2013-05-25 10:15:00,
2013-05-25 03:20:00,46.4,43.3,29.98,SSW,195,0.0,0.0,89,0.00,,,0.00,Wunderground v.1.15,2013-05-25 10:20:00,
2013-05-25 03:25:00,46.3,43.2,29.97,SSW,195,0.0,0.0,89,0.00,,,0.00,Wunderground v.1.15,2013-05-25 10:25:00,
2013-05-25 03:35:00,46.2,43.1,29.97,SSW,195,0.0,0.0,89,0.00,,,0.00,Wunderground v.1.15,2013-05-25 10:35:00,
2013-05-25 03:45:00,46.3,43.5,29.97,SSW,195,0.0,0.0,90,0.00,,,0.00,Wunderground v.1.15,2013-05-25 10:45:00,
2013-05-25 03:50:00,46.2,43.4,29.97,SSW,195,0.0,0.0,90,0.00,,,0.00,Wunderground v.1.15,2013-05-25 10:50:00,
2013-05-25 03:55:00,46.1,43.3,29.97,SSW,195,0.0,0.0,90,0.00,,,0.00,Wunderground v.1.15,2013-05-25 10:55:00,
2013-05-25 04:00:00,46.2,43.4,29.97,SSW,195,0.0,0.0,90,0.00,,,0.00,Wunderground v.1.15,2013-05-25 11:00:00,
2013-05-25 04:05:00,46.1,43.3,29.97,SSW,195,0.0,0.0,90,0.00,,,0.00,Wunderground v.1.15,2013-05-25 11:05:00,
2013-05-25 04:15:00,45.9,43.1,29.97,SSW,195,0.0,0.0,90,0.00,,,0.00,Wunderground v.1.15,2013-05-25 11:15:00,
2013-05-25 04:20:00,45.8,43.0,29.97,SSW,195,0.0,0.0,90,0.00,,,0.00,Wunderground v.1.15,2013-05-25 11:20:00,
2013-05-25 04:25:00,45.9,43.1,29.97,SSW,195,0.0,0.0,90,0.00,,,0.00,Wunderground v.1.15,2013-05-25 11:25:00,
2013-05-25 04:35:00,46.0,43.5,29.97,SSW,195,0.0,0.0,91,0.00,,,0.00,Wunderground v.1.15,2013-05-25 11:35:00,
2013-05-25 04:40:00,46.0,43.5,29.97,SSW,195,0.0,0.0,91,0.00,,,0.00,Wunderground v.1.15,2013-05-25 11:40:00,
2013-05-25 04:50:00,46.1,43.6,29.97,SSW,195,0.0,0.0,91,0.00,,,0.00,Wunderground v.1.15,2013-05-25 11:50:00,
2013-05-25 04:55:00,46.1,43.6,29.97,SSW,195,0.0,0.0,91,0.00,,,0.00,Wunderground v.1.15,2013-05-25 11:55:00,
2013-05-25 05:00:00,46.1,43.6,29.98,SSW,195,0.0,0.0,91,0.00,,,0.00,Wunderground v.1.15,2013-05-25 12:00:00,
2013-05-25 05:05:00,46.1,43.6,29.98,SSW,195,0.0,0.0,91,0.00,,,0.00,Wunderground v.1.15,2013-05-25 12:05:00,
2013-05-25 05:10:00,46.2,44.0,29.98,SSW,195,0.0,0.0,92,0.00,,,0.00,Wunderground v.1.15,2013-05-25 12:10:00,
2013-05-25 05:15:00,46.2,44.0,29.98,SSW,195,0.0,0.0,92,0.00,,,0.00,Wunderground v.1.15,2013-05-25 12:15:00,
2013-05-25 05:20:00,46.3,43.8,29.98,SSW,195,0.0,0.0,91,0.00,,,0.00,Wunderground v.1.15,2013-05-25 12:20:00,
2013-05-25 05:25:00,46.3,43.8,29.98,SSW,195,0.0,0.0,91,0.00,,,0.00,Wunderground v.1.15,2013-05-25 12:25:00,
2013-05-25 05:30:00,46.3,44.1,29.98,SSW,195,0.0,0.0,92,0.00,,,0.00,Wunderground v.1.15,2013-05-25 12:30:00,
2013-05-25 05:35:00,46.5,44.3,29.98,SSW,195,0.0,0.0,92,0.00,,,0.00,Wunderground v.1.15,2013-05-25 12:35:00,
2013-05-25 05:40:00,46.5,44.3,29.98,SSW,195,0.0,0.0,92,0.00,,,0.00,Wunderground v.1.15,2013-05-25 12:40:00,
2013-05-25 05:45:00,46.6,44.4,29.99,SSW,195,0.0,0.0,92,0.00,,,0.00,Wunderground v.1.15,2013-05-25 12:45:00,
2013-05-25 05:55:00,46.7,44.5,29.99,SSW,195,0.0,0.0,92,0.00,,,0.00,Wunderground v.1.15,2013-05-25 12:55:00,
2013-05-25 06:00:00,46.7,44.5,29.99,SSW,195,0.0,0.0,92,0.00,,,0.00,Wunderground v.1.15,2013-05-25 13:00:00,
2013-05-25 06:05:00,46.7,44.5,29.99,SSW,195,0.0,0.0,92,0.00,,,0.00,Wunderground v.1.15,2013-05-25 13:05:00,
2013-05-25 06:10:00,46.8,44.9,29.99,SSW,195,0.0,0.0,93,0.00,,,0.00,Wunderground v.1.15,2013-05-25 13:10:00,
2013-05-25 06:15:00,47.0,45.1,29.99,SSW,195,0.0,0.0,93,0.00,,,0.00,Wunderground v.1.15,2013-05-25 13:15:00,
2013-05-25 06:20:00,47.0,44.8,29.99,SSW,195,0.0,0.0,92,0.00,,,0.00,Wunderground v.1.15,2013-05-25 13:20:00,
2013-05-25 06:30:00,47.1,45.2,29.99,SSW,195,0.0,0.0,93,0.00,,,0.00,Wunderground v.1.15,2013-05-25 13:30:00,
2013-05-25 06:35:00,47.2,45.3,30.00,SSW,195,0.0,0.0,93,0.00,,,0.00,Wunderground v.1.15,2013-05-25 13:35:00,
2013-05-25 06:40:00,47.3,45.4,30.00,SSW,195,0.0,0.0,93,0.00,,,0.00,Wunderground v.1.15,2013-05-25 13:40:00,
2013-05-25 06:50:00,47.6,45.7,30.00,SSW,195,0.0,0.0,93,0.00,,,0.00,Wunderground v.1.15,2013-05-25 13:50:00,
2013-05-25 06:55:00,47.8,45.9,30.00,SSW,195,0.0,0.0,93,0.00,,,0.00,Wunderground v.1.15,2013-05-25 13:55:00,
2013-05-25 07:00:00,48.0,46.1,30.00,SSW,195,0.0,0.0,93,0.00,,,0.00,Wunderground v.1.15,2013-05-25 14:00:00,
2013-05-25 07:10:00,48.9,47.2,30.00,SSW,195,0.0,0.0,94,0.00,,,0.00,Wunderground v.1.15,2013-05-25 14:10:00,
2013-05-25 07:15:00,49.7,48.3,30.00,SSW,195,0.0,0.0,95,0.00,,,0.00,Wunderground v.1.15,2013-05-25 14:15:00,
2013-05-25 07:20:00,50.7,49.3,30.01,SSW,195,0.0,0.0,95,0.00,,,0.00,Wunderground v.1.15,2013-05-25 14:20:00,
2013-05-25 07:25:00,51.5,50.1,30.01,SSW,195,0.0,0.0,95,0.00,,,0.00,Wunderground v.1.15,2013-05-25 14:25:00,
2013-05-25 07:30:00,52.3,51.2,30.01,SSW,195,0.0,0.0,96,0.00,,,0.00,Wunderground v.1.15,2013-05-25 14:30:00,
2013-05-25 07:40:00,53.4,52.0,30.01,SSW,195,0.0,0.0,95,0.00,,,0.00,Wunderground v.1.15,2013-05-25 14:40:00,
2013-05-25 07:45:00,53.8,52.4,30.01,SSW,195,0.0,0.0,95,0.00,,,0.00,Wunderground v.1.15,2013-05-25 14:45:00,
2013-05-25 07:50:00,54.2,52.8,30.01,SSW,195,0.0,0.0,95,0.00,,,0.00,Wunderground v.1.15,2013-05-25 14:50:00,
2013-05-25 07:55:00,54.7,53.0,30.01,ESE,116,0.0,0.0,94,0.00,,,0.00,Wunderground v.1.15,2013-05-25 14:55:00,
2013-05-25 08:05:00,55.5,53.2,30.01,SSE,161,0.0,0.0,92,0.00,,,0.00,Wunderground v.1.15,2013-05-25 15:05:00,
2013-05-25 08:10:00,56.0,53.1,30.01,SSE,161,1.0,1.0,90,0.00,,,0.00,Wunderground v.1.15,2013-05-25 15:10:00,
2013-05-25 08:20:00,56.9,52.8,30.01,SSE,161,0.0,2.0,86,0.00,,,0.00,Wunderground v.1.15,2013-05-25 15:20:00,
2013-05-25 08:25:00,57.4,52.9,30.01,ESE,122,1.0,2.0,85,0.00,,,0.00,Wunderground v.1.15,2013-05-25 15:25:00,
2013-05-25 08:30:00,57.8,52.7,30.01,ESE,105,2.0,2.0,83,0.00,,,0.00,Wunderground v.1.15,2013-05-25 15:30:00,
2013-05-25 08:35:00,58.3,52.8,30.01,ESE,106,2.0,2.0,82,0.00,,,0.00,Wunderground v.1.15,2013-05-25 15:35:00,
2013-05-25 08:45:00,59.1,53.3,30.01,ESE,123,2.0,2.0,81,0.00,,,0.00,Wunderground v.1.15,2013-05-25 15:45:00,
2013-05-25 08:50:00,59.5,53.0,30.01,SE,140,1.0,1.0,79,0.00,,,0.00,Wunderground v.1.15,2013-05-25 15:50:00,
2013-05-25 08:55:00,60.0,53.8,30.01,ENE,60,0.0,1.0,80,0.00,,,0.00,Wunderground v.1.15,2013-05-25 15:55:00,
2013-05-25 09:00:00,60.6,53.7,30.01,SE,130,1.0,1.0,78,0.00,,,0.00,Wunderground v.1.15,2013-05-25 16:00:00,
2013-05-25 09:05:00,61.1,54.2,30.01,SE,131,1.0,1.0,78,0.00,,,0.00,Wunderground v.1.15,2013-05-25 16:05:00,
2013-05-25 09:15:00,62.0,53.6,30.01,ESE,122,1.0,1.0,74,0.00,,,0.00,Wunderground v.1.15,2013-05-25 16:15:00,
2013-05-25 09:20:00,62.3,53.2,30.01,West,262,0.0,1.0,72,0.00,,,0.00,Wunderground v.1.15,2013-05-25 16:20:00,
2013-05-25 09:25:00,62.8,54.4,30.01,SE,139,1.0,2.0,74,0.00,,,0.00,Wunderground v.1.15,2013-05-25 16:25:00,
2013-05-25 09:30:00,63.3,54.5,30.01,SE,141,1.0,1.0,73,0.00,,,0.00,Wunderground v.1.15,2013-05-25 16:30:00,
2013-05-25 09:35:00,63.8,55.0,30.01,SE,138,1.0,1.0,73,0.00,,,0.00,Wunderground v.1.15,2013-05-25 16:35:00,
2013-05-25 09:40:00,64.3,53.5,30.01,South,173,1.0,1.0,68,0.00,,,0.00,Wunderground v.1.15,2013-05-25 16:40:00,
2013-05-25 09:45:00,64.7,54.3,30.01,SE,139,0.0,1.0,69,0.00,,,0.00,Wunderground v.1.15,2013-05-25 16:45:00,
2013-05-25 09:50:00,65.2,54.0,30.01,ESE,123,1.0,1.0,67,0.00,,,0.00,Wunderground v.1.15,2013-05-25 16:50:00,
2013-05-25 09:55:00,65.9,55.0,30.01,SSE,155,1.0,2.0,68,0.00,,,0.00,Wunderground v.1.15,2013-05-25 16:55:00,
2013-05-25 10:00:00,66.6,55.3,30.01,South,176,1.0,2.0,67,0.00,,,0.00,Wunderground v.1.15,2013-05-25 17:00:00,
2013-05-25 10:10:00,66.8,53.8,30.01,South,176,1.0,1.0,63,0.00,,,0.00,Wunderground v.1.15,2013-05-25 17:10:00,
2013-05-25 10:15:00,66.8,54.7,30.01,South,169,1.0,1.0,65,0.00,,,0.00,Wunderground v.1.15,2013-05-25 17:15:00,
2013-05-25 10:20:00,67.1,54.1,30.01,WSW,247,1.0,3.0,63,0.00,,,0.00,Wunderground v.1.15,2013-05-25 17:20:00,
2013-05-25 10:25:00,67.1,53.6,30.01,SSE,166,1.0,3.0,62,0.00,,,0.00,Wunderground v.1.15,2013-05-25 17:25:00,
2013-05-25 10:30:00,67.2,52.8,30.01,South,172,2.0,2.0,60,0.00,,,0.00,Wunderground v.1.15,2013-05-25 17:30:00,
2013-05-25 10:40:00,68.0,54.5,30.01,SSE,157,2.0,2.0,62,0.00,,,0.00,Wunderground v.1.15,2013-05-25 17:40:00,
2013-05-25 10:45:00,68.5,53.1,30.01,SSW,196,3.0,3.0,58,0.00,,,0.00,Wunderground v.1.15,2013-05-25 17:45:00,
2013-05-25 10:50:00,69.0,54.5,30.01,SSE,161,2.0,2.0,60,0.00,,,0.00,Wunderground v.1.15,2013-05-25 17:50:00,
2013-05-25 10:55:00,69.5,54.1,30.01,WSW,245,1.0,4.0,58,0.00,,,0.00,Wunderground v.1.15,2013-05-25 17:55:00,
2013-05-25 11:05:00,69.5,53.6,30.01,SE,146,2.0,5.0,57,0.00,,,0.00,Wunderground v.1.15,2013-05-25 18:05:00,
2013-05-25 11:10:00,69.8,53.9,30.01,North,10,2.0,2.0,57,0.00,,,0.00,Wunderground v.1.15,2013-05-25 18:10:00,
2013-05-25 11:15:00,69.9,53.5,30.01,SSE,160,3.0,4.0,56,0.00,,,0.00,Wunderground v.1.15,2013-05-25 18:15:00,
2013-05-25 11:20:00,69.9,53.5,30.01,SSW,200,3.0,3.0,56,0.00,,,0.00,Wunderground v.1.15,2013-05-25 18:20:00,
2013-05-25 11:25:00,70.0,55.5,30.01,South,173,2.0,3.0,60,0.00,,,0.00,Wunderground v.1.15,2013-05-25 18:25:00,
2013-05-25 11:30:00,70.2,54.2,30.01,SW,236,2.0,2.0,57,0.00,,,0.00,Wunderground v.1.15,2013-05-25 18:30:00,
2013-05-25 11:35:00,70.0,55.9,30.01,WSW,248,3.0,3.0,61,0.00,,,0.00,Wunderground v.1.15,2013-05-25 18:35:00,
2013-05-25 11:40:00,70.1,54.6,30.02,South,180,2.0,4.0,58,0.00,,,0.00,Wunderground v.1.15,2013-05-25 18:40:00,
2013-05-25 11:50:00,70.0,55.5,30.02,SSE,157,3.0,3.0,60,0.00,,,0.00,Wunderground v.1.15,2013-05-25 18:50:00,
2013-05-25 11:55:00,70.0,55.9,30.02,WNW,292,3.0,3.0,61,0.00,,,0.00,Wunderground v.1.15,2013-05-25 18:55:00,
2013-05-25 12:00:00,70.0,56.8,30.02,SW,217,2.0,2.0,63,0.00,,,0.00,Wunderground v.1.15,2013-05-25 19:00:00,
2013-05-25 12:10:00,70.1,56.5,30.02,SSW,213,3.0,3.0,62,0.00,,,0.00,Wunderground v.1.15,2013-05-25 19:10:00,
2013-05-25 12:15:00,70.0,56.4,30.02,West,272,3.0,3.0,62,0.00,,,0.00,Wunderground v.1.15,2013-05-25 19:15:00,
2013-05-25 12:20:00,70.0,55.9,30.02,South,177,3.0,3.0,61,0.00,,,0.00,Wunderground v.1.15,2013-05-25 19:20:00,
2013-05-25 12:25:00,70.4,56.3,30.02,SE,143,2.0,4.0,61,0.00,,,0.00,Wunderground v.1.15,2013-05-25 19:25:00,
2013-05-25 12:30:00,70.8,55.8,30.02,SW,235,2.0,2.0,59,0.00,,,0.00,Wunderground v.1.15,2013-05-25 19:30:00,
2013-05-25 12:40:00,71.0,55.9,30.02,WSW,241,3.0,3.0,59,0.00,,,0.00,Wunderground v.1.15,2013-05-25 19:40:00,
2013-05-25 12:45:00,70.6,55.1,30.03,WNW,282,3.0,3.0,58,0.00,,,0.00,Wunderground v.1.15,2013-05-25 19:45:00,
2013-05-25 12:50:00,70.7,56.1,30.03,SW,235,3.0,3.0,60,0.00,,,0.00,Wunderground v.1.15,2013-05-25 19:50:00,
2013-05-25 12:55:00,71.0,56.4,30.03,ENE,65,2.0,3.0,60,0.00,,,0.00,Wunderground v.1.15,2013-05-25 19:55:00,
2013-05-25 13:00:00,71.5,56.4,30.03,WSW,254,2.0,2.0,59,0.00,,,0.00,Wunderground v.1.15,2013-05-25 20:00:00,
2013-05-25 13:05:00,72.1,57.0,30.03,WSW,243,1.0,7.0,59,0.00,,,0.00,Wunderground v.1.15,2013-05-25 20:05:00,
2013-05-25 13:10:00,72.5,56.4,30.03,West,262,2.0,2.0,57,0.00,,,0.00,Wunderground v.1.15,2013-05-25 20:10:00,
2013-05-25 13:20:00,73.1,56.5,30.03,NE,47,2.0,2.0,56,0.00,,,0.00,Wunderground v.1.15,2013-05-25 20:20:00,
2013-05-25 13:30:00,72.7,56.1,30.03,WSW,238,2.0,2.0,56,0.00,,,0.00,Wunderground v.1.15,2013-05-25 20:30:00,
2013-05-25 13:35:00,72.7,55.1,30.03,WSW,248,1.0,2.0,54,0.00,,,0.00,Wunderground v.1.15,2013-05-25 20:35:00,
2013-05-25 13:40:00,72.6,54.5,30.03,WSW,239,2.0,2.0,53,0.00,,,0.00,Wunderground v.1.15,2013-05-25 20:40:00,
2013-05-25 13:45:00,72.3,55.7,30.03,NW,316,2.0,2.0,56,0.00,,,0.00,Wunderground v.1.15,2013-05-25 20:45:00,
2013-05-25 13:50:00,72.2,55.6,30.03,SW,216,2.0,2.0,56,0.00,,,0.00,Wunderground v.1.15,2013-05-25 20:50:00,
2013-05-25 13:55:00,72.1,55.0,30.02,SE,126,3.0,4.0,55,0.00,,,0.00,Wunderground v.1.15,2013-05-25 20:55:00,
2013-05-25 14:05:00,72.6,57.0,30.02,SE,124,2.0,10.0,58,0.00,,,0.00,Wunderground v.1.15,2013-05-25 21:05:00,
2013-05-25 14:10:00,73.1,56.0,30.02,SSE,165,2.0,7.0,55,0.00,,,0.00,Wunderground v.1.15,2013-05-25 21:10:00,
2013-05-25 14:15:00,73.4,55.2,30.02,SSW,213,2.0,7.0,53,0.00,,,0.00,Wunderground v.1.15,2013-05-25 21:15:00,
2013-05-25 14:20:00,73.3,55.1,30.02,South,171,2.0,4.0,53,0.00,,,0.00,Wunderground v.1.15,2013-05-25 21:20:00,
2013-05-25 14:25:00,72.7,54.6,30.02,South,189,3.0,4.0,53,0.00,,,0.00,Wunderground v.1.15,2013-05-25 21:25:00,
2013-05-25 14:30:00,72.1,55.5,30.02,WSW,253,4.0,4.0,56,0.00,,,0.00,Wunderground v.1.15,2013-05-25 21:30:00,
2013-05-25 14:35:00,72.3,55.2,30.02,WSW,239,3.0,4.0,55,0.00,,,0.00,Wunderground v.1.15,2013-05-25 21:35:00,
2013-05-25 14:45:00,71.9,54.3,30.02,West,265,3.0,5.0,54,0.00,,,0.00,Wunderground v.1.15,2013-05-25 21:45:00,
2013-05-25 14:50:00,72.3,55.7,30.02,South,170,2.0,2.0,56,0.00,,,0.00,Wunderground v.1.15,2013-05-25 21:50:00,
2013-05-25 14:55:00,72.1,54.5,30.02,SSW,201,2.0,2.0,54,0.00,,,0.00,Wunderground v.1.15,2013-05-25 21:55:00,
2013-05-25 15:05:00,72.1,53.0,30.02,NW,307,2.0,4.0,51,0.00,,,0.00,Wunderground v.1.15,2013-05-25 22:05:00,
2013-05-25 15:10:00,72.3,54.7,30.01,SSW,197,2.0,5.0,54,0.00,,,0.00,Wunderground v.1.15,2013-05-25 22:10:00,
2013-05-25 15:15:00,72.6,54.0,30.01,SSW,204,2.0,6.0,52,0.00,,,0.00,Wunderground v.1.15,2013-05-25 22:15:00,
2013-05-25 15:20:00,72.5,53.9,30.01,SSW,207,3.0,3.0,52,0.00,,,0.00,Wunderground v.1.15,2013-05-25 22:20:00,
2013-05-25 15:25:00,72.1,54.5,30.01,SSW,192,3.0,3.0,54,0.00,,,0.00,Wunderground v.1.15,2013-05-25 22:25:00,
2013-05-25 15:35:00,72.7,55.1,30.01,South,190,2.0,8.0,54,0.00,,,0.00,Wunderground v.1.15,2013-05-25 22:35:00,
2013-05-25 15:45:00,73.3,54.1,30.00,SSE,157,2.0,2.0,51,0.00,,,0.00,Wunderground v.1.15,2013-05-25 22:45:00,
2013-05-25 15:50:00,73.0,54.3,30.00,SSE,164,3.0,5.0,52,0.00,,,0.00,Wunderground v.1.15,2013-05-25 22:50:00,
2013-05-25 15:55:00,72.1,54.0,30.00,South,170,3.0,5.0,53,0.00,,,0.00,Wunderground v.1.15,2013-05-25 22:55:00,
2013-05-25 16:00:00,72.1,54.5,30.00,SSW,196,2.0,4.0,54,0.00,,,0.00,Wunderground v.1.15,2013-05-25 23:00:00,
2013-05-25 16:10:00,72.7,54.1,30.00,WNW,293,2.0,4.0,52,0.00,,,0.00,Wunderground v.1.15,2013-05-25 23:10:00,
2013-05-25 16:15:00,72.2,53.6,30.00,WSW,255,3.0,4.0,52,0.00,,,0.00,Wunderground v.1.15,2013-05-25 23:15:00,
2013-05-25 16:20:00,72.2,54.1,30.00,WSW,244,2.0,2.0,53,0.00,,,0.00,Wunderground v.1.15,2013-05-25 23:20:00,
2013-05-25 16:25:00,72.1,54.0,30.00,SW,236,2.0,2.0,53,0.00,,,0.00,Wunderground v.1.15,2013-05-25 23:25:00,
2013-05-25 16:30:00,71.9,54.3,30.00,SSW,212,2.0,4.0,54,0.00,,,0.00,Wunderground v.1.15,2013-05-25 23:30:00,
2013-05-25 16:40:00,71.7,53.7,30.00,West,277,3.0,3.0,53,0.00,,,0.00,Wunderground v.1.15,2013-05-25 23:40:00,
2013-05-25 16:50:00,71.6,53.0,30.00,WSW,243,2.0,6.0,52,0.00,,,0.00,Wunderground v.1.15,2013-05-25 23:50:00,
2013-05-25 16:55:00,71.7,52.6,30.00,West,266,2.0,6.0,51,0.00,,,0.00,Wunderground v.1.15,2013-05-25 23:55:00,
2013-05-25 17:00:00,72.4,53.2,30.00,ESE,115,1.0,1.0,51,0.00,,,0.00,Wunderground v.1.15,2013-05-26 00:00:00,
2013-05-25 17:05:00,73.0,53.3,30.00,West,259,1.0,1.0,50,0.00,,,0.00,Wunderground v.1.15,2013-05-26 00:05:00,
2013-05-25 17:10:00,72.8,53.1,30.00,WSW,255,2.0,4.0,50,0.00,,,0.00,Wunderground v.1.15,2013-05-26 00:10:00,
2013-05-25 17:15:00,72.3,53.7,30.00,West,272,2.0,4.0,52,0.00,,,0.00,Wunderground v.1.15,2013-05-26 00:15:00,
2013-05-25 17:20:00,72.7,53.5,30.00,WSW,256,1.0,2.0,51,0.00,,,0.00,Wunderground v.1.15,2013-05-26 00:20:00,
2013-05-25 17:25:00,72.3,52.6,30.00,WSW,244,2.0,2.0,50,0.00,,,0.00,Wunderground v.1.15,2013-05-26 00:25:00,
2013-05-25 17:35:00,71.6,53.0,30.00,West,268,1.0,2.0,52,0.00,,,0.00,Wunderground v.1.15,2013-05-26 00:35:00,
2013-05-25 17:40:00,71.8,52.2,30.00,SSW,193,1.0,3.0,50,0.00,,,0.00,Wunderground v.1.15,2013-05-26 00:40:00,
2013-05-25 17:45:00,71.6,52.5,30.00,East,87,1.0,3.0,51,0.00,,,0.00,Wunderground v.1.15,2013-05-26 00:45:00,
2013-05-25 17:50:00,71.5,52.4,30.00,WSW,241,1.0,1.0,51,0.00,,,0.00,Wunderground v.1.15,2013-05-26 00:50:00,
2013-05-25 17:55:00,71.0,52.0,29.99,SSW,202,2.0,2.0,51,0.00,,,0.00,Wunderground v.1.15,2013-05-26 00:55:00,
2013-05-25 18:00:00,70.7,52.7,29.99,WSW,255,2.0,2.0,53,0.00,,,0.00,Wunderground v.1.15,2013-05-26 01:00:00,
2013-05-25 18:05:00,70.3,52.4,29.99,ENE,72,1.0,2.0,53,0.00,,,0.00,Wunderground v.1.15,2013-05-26 01:05:00,
2013-05-25 18:10:00,70.3,52.4,29.99,SSW,203,1.0,1.0,53,0.00,,,0.00,Wunderground v.1.15,2013-05-26 01:10:00,
2013-05-25 18:15:00,70.2,52.3,29.99,SE,143,1.0,2.0,53,0.00,,,0.00,Wunderground v.1.15,2013-05-26 01:15:00,
2013-05-25 18:20:00,69.6,51.7,30.00,SW,218,2.0,3.0,53,0.00,,,0.00,Wunderground v.1.15,2013-05-26 01:20:00,
2013-05-25 18:25:00,68.5,51.2,30.00,WSW,243,2.0,3.0,54,0.00,,,0.00,Wunderground v.1.15,2013-05-26 01:25:00,
2013-05-25 18:30:00,68.0,51.2,29.99,NNW,331,2.0,2.0,55,0.00,,,0.00,Wunderground v.1.15,2013-05-26 01:30:00,
2013-05-25 18:35:00,68.3,52.0,29.99,South,182,1.0,2.0,56,0.00,,,0.00,Wunderground v.1.15,2013-05-26 01:35:00,
2013-05-25 18:40:00,67.7,50.9,30.00,SSW,192,1.0,3.0,55,0.00,,,0.00,Wunderground v.1.15,2013-05-26 01:40:00,
2013-05-25 18:45:00,67.1,50.9,29.99,South,189,1.0,3.0,56,0.00,,,0.00,Wunderground v.1.15,2013-05-26 01:45:00,
2013-05-25 18:55:00,65.9,50.7,29.99,SSE,152,1.0,1.0,58,0.00,,,0.00,Wunderground v.1.15,2013-05-26 01:55:00,
2013-05-25 19:00:00,65.4,50.7,29.99,SSW,192,1.0,3.0,59,0.00,,,0.00,Wunderground v.1.15,2013-05-26 02:00:00,
2013-05-25 19:05:00,65.1,50.9,29.99,WSW,241,1.0,3.0,60,0.00,,,0.00,Wunderground v.1.15,2013-05-26 02:05:00,
2013-05-25 19:10:00,64.8,50.1,29.99,WSW,246,1.0,1.0,59,0.00,,,0.00,Wunderground v.1.15,2013-05-26 02:10:00,
2013-05-25 19:15:00,64.5,50.3,29.99,WSW,246,0.0,1.0,60,0.00,,,0.00,Wunderground v.1.15,2013-05-26 02:15:00,
2013-05-25 19:20:00,64.3,50.1,29.99,WSW,246,0.0,0.0,60,0.00,,,0.00,Wunderground v.1.15,2013-05-26 02:20:00,
2013-05-25 19:25:00,64.1,49.9,29.99,WSW,246,0.0,0.0,60,0.00,,,0.00,Wunderground v.1.15,2013-05-26 02:25:00,
2013-05-25 19:35:00,63.8,50.1,29.99,WSW,246,0.0,2.0,61,0.00,,,0.00,Wunderground v.1.15,2013-05-26 02:35:00,
2013-05-25 19:40:00,63.3,50.1,29.99,WSW,246,1.0,1.0,62,0.00,,,0.00,Wunderground v.1.15,2013-05-26 02:40:00,
2013-05-25 19:45:00,62.9,50.1,29.99,WSW,246,1.0,1.0,63,0.00,,,0.00,Wunderground v.1.15,2013-05-26 02:45:00,
2013-05-25 19:50:00,62.5,50.2,29.99,WSW,246,0.0,0.0,64,0.00,,,0.00,Wunderground v.1.15,2013-05-26 02:50:00,
2013-05-25 19:55:00,62.1,49.8,30.00,WSW,246,0.0,0.0,64,0.00,,,0.00,Wunderground v.1.15,2013-05-26 02:55:00,
2013-05-25 20:00:00,61.8,49.9,29.99,WSW,246,0.0,0.0,65,0.00,,,0.00,Wunderground v.1.15,2013-05-26 03:00:00,
2013-05-25 20:05:00,61.6,49.7,30.00,WSW,246,0.0,0.0,65,0.00,,,0.00,Wunderground v.1.15,2013-05-26 03:05:00,
2013-05-25 20:10:00,61.3,49.4,30.00,WSW,246,0.0,0.0,65,0.00,,,0.00,Wunderground v.1.15,2013-05-26 03:10:00,
2013-05-25 20:15:00,60.9,49.1,30.00,WSW,246,0.0,0.0,65,0.00,,,0.00,Wunderground v.1.15,2013-05-26 03:15:00,
2013-05-25 20:25:00,60.3,48.5,30.00,WSW,246,0.0,0.0,65,0.00,,,0.00,Wunderground v.1.15,2013-05-26 03:25:00,
2013-05-25 20:30:00,60.0,48.2,30.00,WSW,246,0.0,0.0,65,0.00,,,0.00,Wunderground v.1.15,2013-05-26 03:30:00,
2013-05-25 20:35:00,59.8,48.0,30.00,WSW,246,0.0,0.0,65,0.00,,,0.00,Wunderground v.1.15,2013-05-26 03:35:00,
2013-05-25 20:40:00,59.6,48.2,30.00,WSW,246,0.0,0.0,66,0.00,,,0.00,Wunderground v.1.15,2013-05-26 03:40:00,
2013-05-25 20:45:00,59.4,48.0,30.00,WSW,246,0.0,0.0,66,0.00,,,0.00,Wunderground v.1.15,2013-05-26 03:45:00,
2013-05-25 20:50:00,59.2,47.4,30.00,WSW,246,0.0,0.0,65,0.00,,,0.00,Wunderground v.1.15,2013-05-26 03:50:00,
2013-05-25 20:55:00,59.0,47.7,30.00,WSW,246,0.0,0.0,66,0.00,,,0.00,Wunderground v.1.15,2013-05-26 03:55:00,
2013-05-25 21:00:00,58.8,47.5,30.00,WSW,246,0.0,0.0,66,0.00,,,0.00,Wunderground v.1.15,2013-05-26 04:00:00,
2013-05-25 21:05:00,58.6,46.9,30.00,WSW,246,0.0,0.0,65,0.00,,,0.00,Wunderground v.1.15,2013-05-26 04:05:00,
2013-05-25 21:10:00,58.4,47.1,30.01,WSW,246,0.0,0.0,66,0.00,,,0.00,Wunderground v.1.15,2013-05-26 04:10:00,
2013-05-25 21:15:00,58.2,47.3,30.01,WSW,246,0.0,0.0,67,0.00,,,0.00,Wunderground v.1.15,2013-05-26 04:15:00,
2013-05-25 21:20:00,57.9,47.0,30.01,WSW,246,0.0,0.0,67,0.00,,,0.00,Wunderground v.1.15,2013-05-26 04:20:00,
2013-05-25 21:25:00,57.7,46.8,30.01,WSW,246,0.0,0.0,67,0.00,,,0.00,Wunderground v.1.15,2013-05-26 04:25:00,
2013-05-25 21:30:00,57.5,46.6,30.01,WSW,246,0.0,0.0,67,0.00,,,0.00,Wunderground v.1.15,2013-05-26 04:30:00,
2013-05-25 21:35:00,57.2,46.7,30.01,WSW,246,0.0,0.0,68,0.00,,,0.00,Wunderground v.1.15,2013-05-26 04:35:00,
2013-05-25 21:40:00,57.0,46.9,30.01,WSW,246,0.0,0.0,69,0.00,,,0.00,Wunderground v.1.15,2013-05-26 04:40:00,
2013-05-25 21:50:00,56.5,46.4,30.01,WSW,246,0.0,0.0,69,0.00,,,0.00,Wunderground v.1.15,2013-05-26 04:50:00,
2013-05-25 21:55:00,56.2,46.9,30.01,WSW,246,0.0,0.0,71,0.00,,,0.00,Wunderground v.1.15,2013-05-26 04:55:00,
2013-05-25 22:00:00,55.8,46.9,30.01,WSW,246,0.0,0.0,72,0.00,,,0.00,Wunderground v.1.15,2013-05-26 05:00:00,
2013-05-25 22:05:00,55.5,46.6,30.01,WSW,246,0.0,0.0,72,0.00,,,0.00,Wunderground v.1.15,2013-05-26 05:05:00,
2013-05-25 22:15:00,55.0,46.9,30.02,WSW,246,0.0,0.0,74,0.00,,,0.00,Wunderground v.1.15,2013-05-26 05:15:00,
2013-05-25 22:25:00,54.4,46.6,30.02,WSW,246,0.0,0.0,75,0.00,,,0.00,Wunderground v.1.15,2013-05-26 05:25:00,
2013-05-25 22:30:00,54.1,46.3,30.02,WSW,246,0.0,0.0,75,0.00,,,0.00,Wunderground v.1.15,2013-05-26 05:30:00,
2013-05-25 22:35:00,53.9,46.2,30.01,WSW,246,0.0,0.0,75,0.00,,,0.00,Wunderground v.1.15,2013-05-26 05:35:00,
2013-05-25 22:40:00,53.7,46.3,30.02,WSW,246,0.0,0.0,76,0.00,,,0.00,Wunderground v.1.15,2013-05-26 05:40:00,
2013-05-25 22:45:00,53.4,46.4,30.02,WSW,246,0.0,0.0,77,0.00,,,0.00,Wunderground v.1.15,2013-05-26 05:45:00,
2013-05-25 22:55:00,52.6,45.6,30.01,WSW,246,0.0,0.0,77,0.00,,,0.00,Wunderground v.1.15,2013-05-26 05:55:00,
2013-05-25 23:00:00,52.4,45.7,30.01,WSW,246,0.0,0.0,78,0.00,,,0.00,Wunderground v.1.15,2013-05-26 06:00:00,
2013-05-25 23:05:00,52.1,45.1,30.01,WSW,246,0.0,0.0,77,0.00,,,0.00,Wunderground v.1.15,2013-05-26 06:05:00,
2013-05-25 23:10:00,51.9,44.9,30.01,WSW,246,0.0,0.0,77,0.00,,,0.00,Wunderground v.1.15,2013-05-26 06:10:00,
2013-05-25 23:20:00,51.8,45.2,30.01,WSW,246,0.0,0.0,78,0.00,,,0.00,Wunderground v.1.15,2013-05-26 06:20:00,
2013-05-25 23:30:00,51.6,45.0,30.01,WSW,246,0.0,0.0,78,0.00,,,0.00,Wunderground v.1.15,2013-05-26 06:30:00,
2013-05-25 23:35:00,51.5,45.2,30.01,WSW,246,0.0,0.0,79,0.00,,,0.00,Wunderground v.1.15,2013-05-26 06:35:00,
2013-05-25 23:40:00,51.3,44.7,30.00,WSW,246,0.0,0.0,78,0.00,,,0.00,Wunderground v.1.15,2013-05-26 06:40:00,
2013-05-25 23:45:00,51.2,44.6,30.00,WSW,246,0.0,0.0,78,0.00,,,0.00,Wunderground v.1.15,2013-05-26 06:45:00,
2013-05-25 23:50:00,51.0,44.4,30.01,WSW,246,0.0,0.0,78,0.00,,,0.00,Wunderground v.1.15,2013-05-26 06:50:00,
2013-05-25 23:55:00,50.9,44.9,30.01,WSW,246,0.0,0.0,80,0.00,,,0.00,Wunderground v.1.15,2013-05-26 06:55:00,